Simultaneous Nadir Overpasses (SNOs) Predictions

Prediction of SNOs between METOP-B and TERRA Satellite Orbit:

Table of predicted SNOs for the next 14.0 days since TLE Epoch: 6/7/2014
Index Date (METOP-B) Time (METOP-B) Lat,Lon (METOP-B) SZA (METOP-B ) Date (TERRA) Time (TERRA) Lat,Lon (TERRA) SZA (TERRA ) Distance(km) Time Diff (sec)
1 06/09/2014 02:02:23 81.32,-163.46 61.35 06/09/2014 02:03:18 81.31,-163.28 61.39 3.18 55
2 06/09/2014 02:53:01 -81.33, 4.71 118.56 06/09/2014 02:52:44 -81.33, 4.64 118.57 1.21 17
3 06/11/2014 21:36:43 81.32, -96.59 61.18 06/11/2014 21:37:32 81.33, -96.53 61.21 1.37 49
4 06/11/2014 22:27:22 -81.33, 71.19 118.77 06/11/2014 22:26:59 -81.33, 71.04 118.80 2.64 23
5 06/14/2014 17:11:04 81.32, -30.15 61.01 06/14/2014 17:11:47 81.32, -30.27 61.01 2.04 43
6 06/14/2014 18:01:44 -81.32, 137.25 118.99 06/14/2014 18:01:14 -81.32, 137.33 119.00 1.44 30
7 06/17/2014 12:45:24 81.32, 36.24 60.88 06/17/2014 12:46:00 81.33, 36.26 60.91 0.43 36
8 06/17/2014 13:36:03 -81.33,-155.95 119.06 06/17/2014 13:35:27 -81.33,-156.11 119.10 2.67 36
9 06/20/2014 08:19:45 81.32, 102.59 60.81 06/20/2014 08:20:14 81.32, 102.68 60.84 1.56 29




NCC Satellite Simultaneous Nadir Overpasses (SNOs) Prediction Service
